www.pogodaiklimat.ru

Погода и климат >> Архив погоды >> Россия >> Калмыкия >> Яшкуль


АРХИВ ПОГОДЫ в Яшкуле

Время (UTC), дата Ветер
(напр.,м/с)
 
Видим.   Явления Облачность Т
(С)
Тd
(С)
f
(%)
Тe
(С)
Тes
(С)
Комфортность P
(гПа)
Po
(гПа)
Тmin
(С)
Tmax
(С)
R
(мм)
R24
(мм)
S
(см)
06 17.05 СЗ 3 20 км 10/0
[Ac As]
+17.2 +9.4 60 +17 +20 по сезону 1018.1 1018.9
09 17.05 СЗ 4 20 км 10/0
[]
+19.9 +8.5 48 +21 +27 комфорт 1017.7 1018.6
12 17.05 СЗ 2 20 км 10/0
[Ac As]
+20.3 +9.0 48 +22 +26 комфорт 1017.7 1018.6
15 17.05 СВ 2 20 км 8/0
[Ac und]
+19.9 +8.5 48 +22 +22 комфорт 1017.5 1018.3 +20.8
18 17.05 Ю 1 20 км 10/8 600 м
[Cb cap Ac As]
+18.3 +10.9 62 +20 +20 тепло 1017.6 1018.4
21 17.05 Ю 2 20 км 5/0
[Ac trans]
+16.8 +11.9 73 +17 +17 тепло 1016.9 1017.7
00 18.05 Ю 1 20 км 10/0
[Ac As]
+15.6 +12.4 81 +16 +16 тепло 1016.4 1017.3
03 18.05 Ю 1 20 км 10/0
[Ac As]
+15.6 +12.4 81 +16 +17 по сезону 1016.4 1017.3
06 18.05 Ю 1 20 км 10/6 600 м
[Cb cap Ac As]
+16.3 +13.1 81 +17 +19 по сезону 1016.2 1017.0 +15.6
09 18.05 СЗ 3 20 км 8/8 600 м
[Cb cap]
+19.6 +13.8 69 +22 +25 комфорт 1015.8 1016.7
12 18.05 С 4 20 км 10/0
[Ac As]
+20.1 +13.2 64 +22 +24 комфорт 1015.5 1016.3
15 18.05 С 4 20 км 10/0
[Ac As]
+19.5 +12.8 65 +21 +21 комфорт 1015.3 1016.1 +20.4
18 18.05 В 2 20 км 10/0
[Ac As]
+17.5 +10.7 64 +18 +18 по сезону 1015.9 1016.8
21 18.05 ЮЗ 1 20 км 10/8
[Cb cap Ac As]
+14.7 +12.3 86 +15 +15 по сезону 1015.8 1016.6
00 19.05 В 4 20 км {ливн. осадки} 10/8 600 м
[Cb cap Ac As]
+14.1 +13.0 93 +13 +13 по сезону 1014.1 1014.9
03 19.05 В 3 20 км {ливн. осадки} 10/3 600 м
[Cb cap Ac As]
+13.3 +12.3 94 +12 +12 прохладно 1013.2 1014.0 +13.2 2
06 19.05 СВ 4 20 км {ливн. осадки} 10/6 600 м
[Cb cap Ac As]
+14.4 +13.0 91 +13 +14 холодно 1012.8 1013.6
09 19.05 С 4 20 км {ливн. осадки} 10/0
[Ac As]
+15.6 +14.0 90 +15 +18 холодно 1012.2 1013.1
12 19.05 СЗ 3 20 км 10/6 600 м
[Cb cap Ac As]
+17.3 +12.6 74 +17 +18 очень
холодно
1012.0 1012.8
15 19.05 С 2 20 км 4/0
[Ac trans Ci fib]
+18.4 +12.8 70 +19 +20 прохладно 1011.7 1012.5 +18.7 0.3
18 19.05 С 2 20 км ясно +13.6 +12.5 93 +13 +13 холодно 1011.5 1012.4
21 19.05 З 2 20 км ясно +12.3 +11.7 96 +11 +11 прохладно 1011.3 1012.1
00 20.05 С 2 20 км 10/0
[Ac As]
+11.7 +11.2 97 +10 +10 прохладно 1009.8 1010.6
03 20.05 С 4 20 км 10/0
[Ac As]
+13.6 +13.2 97 +12 +12 прохладно 1008.3 1009.2 +11.3
06 20.05 С 4 20 км 10/8 600 м
[Cb cap Ac As]
+15.9 +12.9 82 +15 +16 прохладно 1008.0 1008.8
09 20.05 СЗ 3 20 км 10/6 600 м
[Cb cap Ac As]
+18.3 +12.9 71 +19 +21 прохладно 1006.6 1007.5
12 20.05 СЗ 4 20 км 10/3 600 м
[Cb cap Ac As]
+18.9 +12.5 66 +20 +21 холодно 1006.1 1007.0
15 20.05 СЗ 5 20 км 10/6 600 м
[Cb cap Ac As]
+18.3 +12.8 70 +18 +18 прохладно 1005.8 1006.6 +19.3
18 20.05 З 5 20 км 9/0
[Ac trans]
+15.5 +12.0 80 +14 +14 прохладно 1006.9 1007.7
21 20.05 З 2 20 км ясно +13.1 +12.0 93 +12 +12 прохладно 1006.9 1007.7
00 21.05 З 3 20 км ясно +11.2 +9.8 91 +9 +9 прохладно 1006.1 1007.0
03 21.05 З 3 20 км ясно +11.9 +9.7 86 +10 +12 холодно 1006.6 1007.4 +10.0
06 21.05 З 5 20 км 8/0
[Ci fib]
+18.7 +9.1 54 +19 +24 по сезону 1006.2 1007.0
09 21.05 З 6-11
{13}
20 км 8/5
[Cu hum Ci fib]
+21.0 +7.0 40 +22 +25 комфорт 1005.5 1006.3
12 21.05 З 7-12
{13}
20 км 6/6 600 м
[Cu med, cong]
+21.7 +7.3 39 +23 +24 комфорт 1005.4 1006.2
15 21.05 З 6-10
{13}
20 км 8/6 600 м
[Cu med, cong Ac trans Ci sp]
+21.4 +7.2 40 +22 +22 комфорт 1005.4 1006.2 +22.7
18 21.05 ЮЗ 7-10
{11}
20 км 8/0
[Ac und]
+17.5 +11.2 67 +17 +17 по сезону 1006.9 1007.7
21 21.05 ЮЗ 6
{12}
20 км 10/0
[Ac As]
+16.0 +10.1 68 +15 +15 по сезону 1006.6 1007.4
00 22.05 З 4
{11}
20 км 8/0
[Ac und]
+14.9 +9.5 70 +14 +14 по сезону 1006.4 1007.2
03 22.05 З 3 20 км ясно +13.8 +8.7 71 +13 +14 прохладно 1006.9 1007.7 +12.7
06 22.05 ЮЗ 5 20 км ясно +18.9 +10.9 60 +19 +25 по сезону 1006.9 1007.7
09 22.05 З 6-10
{13}
20 км 5/0
[Cu hum]
+23.0 +6.4 34 +24 +29 комфорт 1006.5 1007.4
12 22.05 З 6
{12}
20 км 6/6 1000 м
[Cu hum Ci fib]
+23.9 +6.5 33 +24 +26 комфорт 1006.4 1007.2
15 22.05 З 5 20 км 9/0
[Ac trans]
+22.3 +8.1 40 +23 +24 комфорт 1007.2 1008.0 +24.1
18 22.05 ЮЗ 3 20 км 8/0
[Ac trans]
+18.2 +10.3 60 +19 +19 по сезону 1008.9 1009.7
21 22.05 СЗ 2 20 км 10/0
[Ac As]
+14.8 +11.1 78 +15 +15 по сезону 1009.0 1009.8
00 23.05 С 3 20 км 10/0
[Ac As]
+13.0 +10.1 83 +12 +12 по сезону 1009.6 1010.5
03 23.05 С 3 20 км 10/0
[Ac As]
+12.1 +10.0 87 +10 +11 холодно 1011.4 1012.2 +12.0 0.5
06 23.05 С 2 10 км слабый ливневой дождь 10/10
[Cb cap]
+13.5 +9.9 79 +13 +13 очень
холодно
1013.2 1014.1
09 23.05 С 2 20 км {ливн. осадки} 10/6 600 м
[Cb cap Ac As]
+17.1 +6.5 50 +17 +20 холодно 1014.4 1015.2
12 23.05 СЗ 3 20 км {ливн. осадки} 8/5 600 м
[Cu hum Ac trans]
+19.0 +5.7 42 +20 +23 холодно 1013.9 1014.8
15 23.05 СЗ 2 20 км {ливн. осадки} 4/0
[Ci fib]
+20.4 +3.9 34 +22 +23 комфорт 1014.0 1014.8 +20.4 1
18 23.05 С 3 20 км ясно +14.0 +4.1 51 +13 +13 холодно 1015.7 1016.6
21 23.05 СВ 3 20 км ясно +10.9 +4.1 63 +9 +9 холодно 1017.0 1017.8
00 24.05 СВ 3 20 км ясно +11.2 +3.0 57 +10 +10 прохладно 1017.3 1018.1
03 24.05 СВ 4 20 км 10/0
[Ac As]
+12.9 +1.9 47 +11 +12 холодно 1017.9 1018.7

 

Местоположение метеостанции Яшкуль (Калмыкия, Россия): широта 46.18 долгота 45.35 высота над уровнем моря -7 м.

В архиве по умолчанию представлена погода в Яшкуле за последнюю неделю. Архивные данные за месяц целиком и за предыдущие месяцы, начиная с января 2011 года, Вы можете получить, выбрав интересующий диапазон дат из раскрывающегося списка и нажав кнопку "Ввод!".

Внимание! Время в таблицах - всемирное. Для получения местного времени необходимо прибавить поправку, которая в Яшкуле равна 3 ч.

Смотрите также архив погоды в соседних городах и на ближайших метеорологических станциях:

Погода в Утте (Калмыкия, Россия) (56 км)
Погода в Ики-Буруле (Калмыкия, Россия) (70 км)
Погода в Элисте (Калмыкия, Россия) (81 км)
Погода в Комсомольском (Калмыкия, Россия) (106 км)
Погода в Арзгире (Ставропольский край, Россия) (124 км)
Погода в Юсте (Калмыкия, Россия) (129 км)
Погода в Ремонтном (Ростовская область, Россия) (136 км)
Погода в Кетченерах (Калмыкия, Россия) (140 км)
Погода в Лимане (Астраханская область, Россия) (151 км)
Погода в Дивном (Ставропольский край, Россия) (157 км)

Пояснения к столбцам:

Ветер - указаны скорость ветра в м/с - средняя за 10 мин, порывы в срок и между сроками (в фигурных скобках) и направление, откуда дует ветер: С - северный, СВ - северо-восточный, В - восточный, ЮВ - юго-восточный, Ю - южный, ЮЗ - юго-западный, З - западный, СЗ - северо-западный.
Видимость - горизонтальная дальность видимости в метрах или километрах. При видимости от 1 до 10 км при отсутствии осадков обычно наблюдается дымка, при ухудшении видимости до 1 км и менее - туман. В сухую погоду видимость может ухудшаться дымом, пылью или мглою.
Явления - указаны атмосферные явления, наблюдавшиеся в срок или в последний час перед сроком; фигурными скобками обозначены явления, наблюдавшиеся между сроками (за 1-3 часа до срока); квадратными скобками обозначены град или гололедные отложения с указанием их диаметра в мм.
Облачность - указаны через наклонную черту общая и нижняя облачность в баллах и высота нижней границы облаков в метрах; квадратными скобками обозначены формы облаков: Ci - перистые, Cs - перисто-слоистые, Cc - перисто-кучевые, Ac - высококучевые, As - высокослоистые, Sc - слоисто-кучевые, Ns - слоисто-дождевые, Cu - кучевые, Cb - кучево-дождевые. Подробнее классификацию облаков см. в Атласе облаков (PDF).
T - Температура воздуха - температура, измеренная на высоте 2 м над землей.
Td - Температура точки росы - температура, при понижении до которой содержащийся в воздухе водяной пар достигнет насыщения.
f - Относительная влажность воздуха - влажноcть воздуха, измеренная на высоте 2 м над землей.
Te - Эффективная температура - температура, которую ощущает одетый по сезону человек в тени. Характеристика душности погоды. При расчете учитывается влияние влажности воздуха и скорости ветра на теплоощущения человека.
Tes - Эффективная температура на солнце - температура, которую ощущает человек, с поправкой на солнечный нагрев. Характеристика знойности погоды. Зависит от высоты солнца над горизонтом, облачности и скорости ветра. Ночью, в пасмурную погоду, а также при ветре 12 м/с и более поправка равна нулю.
P - Атмосферное давление - приведенное к уровню моря атмосферное давление.
Po - Атмосферное давление - измеренное на уровне метеостанции атмосферное давление.
Tmin - Минимальная температура - минимум температуры воздуха на высоте 2 м над землей.
Tmax - Максимальная температура - максимум температуры воздуха на высоте 2 м над землей.
R - Количество осадков - Количество выпавших осадков за период времени, мм. При наведении курсора мыши на число - период времени, за который выпало указанное количество осадков.
R24 - Количество осадков - Количество выпавших осадков за 24 часа, мм.
S - Снежный покров - Высота снежного покрова, см. При наведении курсора мыши на число - состояние снежного покрова и степень покрытия местности в баллах.